Lapse_Rate
8.5 8.3 8.3 8.8 8.9 8.9 8.8 8.7 8.7 8.4 8.2 8.0 7.8 7.9 7.8 7.9 7.9 6.5 5.9 5.7 6.5 6.4 6.4 6.5 6.5 6.1 6.8 6.4 6.5 6.7 6.6 6.6 6.5 6.5 6.5 6.5 6.5 6.5 6.5 6.5 6.5 6.5 6.5 6.5 6.5 6.5 6.5 6.7 6.7 6.5 6.5 6.7 7.1 7.0
8.5 8.6 8.8 8.9 8.8 8.8 8.6 8.6 8.1 7.4 7.6 7.7 8.0 7.7 7.7 7.9 8.1 7.2 6.1 6.4 5.7 6.9 6.5 6.1 5.9 6.1 6.3 6.2 6.6 6.3 6.7 6.6 6.7 6.5 6.5 6.5 6.5 6.5 6.5 6.5 6.5 6.5 6.5 6.5 6.5 6.5 6.6 6.8 6.7 4.8 5.3 6.5 6.3 7.1
8.8 8.7 8.5 8.4 8.4 8.2 8.1 8.3 7.6 6.4 6.7 7.0 7.5 7.8 7.9 7.9 8.2 7.4 5.4 5.3 6.6 7.3 7.0 6.6 6.1 6.4 6.1 6.1 6.3 6.5 6.6 6.3 6.2 6.7 6.5 6.5 6.5 6.5 6.5 6.5 6.5 6.5 6.6 6.5 6.5 6.5 6.5 6.9 5.4 5.2 5.1 4.5 4.3 5.0
8.6 8.5 8.3 8.2 8.2 8.3 8.2 8.3 8.3 6.5 7.1 6.6 7.5 7.8 7.8 7.8 7.8 7.6 6.0 5.2 5.7 7.1 6.5 6.1 5.2 4.4 4.7 5.4 5.6 6.4 6.3 6.5 6.3 7.0 6.9 6.5 6.5 6.7 6.5 6.5 6.5 6.5 6.5 6.5 6.5 6.5 6.8 6.9 6.6 5.4 3.9 4.1 4.4 5.2
8.7 8.4 8.2 8.0 8.0 8.5 8.4 8.1 8.4 6.7 6.5 8.0 8.4 8.8 8.0 7.9 8.0 7.2 5.5 5.7 6.1 5.9 6.7 6.3 6.2 5.3 5.9 5.6 5.7 6.0 6.4 6.6 6.9 6.5 6.6 6.5 6.9 6.6 6.5 6.5 6.5 6.6 6.5 6.5 6.5 6.7 6.7 6.5 6.0 4.7 3.5 3.9 4.1 4.1
9.1 8.6 8.3 8.2 8.4 8.3 8.9 8.5 8.2 7.4 6.7 7.5 8.3 8.6 7.7 7.7 8.0 6.3 6.4 6.5 6.6 7.4 6.9 6.5 6.1 6.3 6.8 6.9 7.0 7.0 7.1 6.9 6.2 6.8 6.6 6.2 6.6 6.4 6.5 6.5 6.5 6.9 6.5 6.1 6.5 6.5 5.1 5.3 5.3 5.3 3.8 4.1 4.8 5.0
8.6 8.8 8.8 8.3 8.1 8.2 8.5 7.4 7.6 7.8 6.7 7.1 7.6 8.2 7.5 7.4 6.7 6.4 6.7 6.1 6.0 6.4 6.2 6.5 6.5 5.8 5.1 6.6 6.3 6.1 5.7 5.6 6.1 5.9 6.6 6.7 6.8 6.8 6.5 6.5 6.6 6.3 5.5 4.8 4.5 4.9 6.9 7.1 6.9 5.6 4.6 5.4 5.6 5.2
6.2 5.8 5.6 5.5 5.5 5.9 6.6 6.1 6.3 7.8 7.1 7.4 7.6 7.4 7.5 7.6 7.5 7.1 5.9 6.2 6.5 6.1 5.0 6.5 6.5 6.4 5.4 6.5 6.8 6.5 6.6 6.0 6.0 6.4 6.3 6.5 6.6 6.7 6.5 6.6 6.9 6.4 6.3 6.7 6.0 5.4 6.0 6.2 6.1 5.8 5.8 5.5 6.0 5.9
5.0 5.3 6.4 6.4 5.7 6.2 4.7 5.5 6.3 7.0 7.7 7.6 7.4 7.5 7.2 6.8 5.9 7.3 6.5 6.5 5.9 5.9 6.6 6.6 6.5 6.5 5.1 6.3 6.1 5.8 5.5 6.5 5.8 6.5 6.5 6.6 6.5 6.5 6.5 6.7 6.9 6.9 6.7 5.9 5.2 5.5 6.4 6.4 6.8 6.3 6.1 6.6 7.2 7.4
7.2 7.3 6.9 6.5 6.3 5.5 4.3 5.2 6.2 7.2 6.8 6.6 5.9 4.9 6.0 6.2 6.9 6.7 6.3 5.8 6.0 5.7 5.4 6.5 5.8 6.5 6.4 6.5 6.6 6.6 6.2 6.5 6.5 6.5 6.5 6.5 6.5 6.9 6.1 6.5 6.0 6.2 5.4 5.6 6.7 7.0 7.3 7.3 7.3 6.9 6.9 7.3 7.5 7.6
6.9 7.3 7.3 5.9 4.7 4.7 5.3 5.7 6.7 6.8 6.5 5.8 5.6 6.2 6.2 6.0 5.5 5.5 6.6 6.6 6.3 6.5 6.2 6.1 6.0 6.5 5.0 6.5 6.5 6.4 6.5 6.5 6.5 6.5 6.5 6.5 6.5 6.5 6.1 5.6 5.7 5.2 5.3 5.6 5.8 5.9 6.2 5.9 6.9 7.3 7.1 7.3 7.2 6.7
6.7 6.7 7.0 6.9 7.2 7.1 7.2 7.1 6.9 6.0 5.5 5.6 5.7 5.6 4.7 5.4 6.0 6.5 6.5 6.5 6.5 6.5 6.3 6.5 6.2 5.6 5.3 4.5 6.3 6.2 6.5 6.5 6.5 6.6 6.5 6.5 6.5 6.5 5.9 5.7 5.1 5.0 5.5 5.5 5.3 5.5 6.4 6.3 6.0 6.1 6.4 6.5 5.9 5.2
7.5 7.3 6.8 6.6 6.8 7.3 7.5 7.3 7.1 6.7 6.1 5.6 5.5 5.7 6.4 6.3 6.5 6.5 6.5 6.5 6.5 6.5 5.7 5.7 6.4 5.0 5.1 4.4 6.5 6.5 6.5 6.5 6.7 6.5 6.5 6.5 6.8 6.2 5.7 5.4 4.8 4.9 4.9 4.7 4.9 5.7 6.0 6.1 6.3 5.9 5.8 5.2 3.7 3.2
7.9 7.3 7.6 7.2 7.1 7.1 6.9 7.4 7.4 5.6 5.3 4.6 6.0 6.5 6.5 6.5 6.5 6.5 6.5 6.5 6.7 5.1 5.0 4.6 6.3 6.4 5.5 6.5 6.5 6.5 6.5 6.5 6.5 6.5 6.5 6.5 6.7 5.8 5.2 4.8 4.7 4.1 3.5 4.0 4.0 4.2 3.8 3.9 4.0 4.3 3.8 3.3 2.7 2.5
7.2 6.7 6.7 7.3 7.5 8.0 7.7 5.7 4.8 3.4 4.1 5.6 6.2 6.5 6.5 6.6 6.5 6.8 6.1 6.5 5.7 4.5 3.5 4.8 5.7 5.8 6.5 6.5 6.5 6.5 6.5 6.5 6.5 6.5 6.5 6.9 5.9 4.6 3.7 3.3 2.1 1.5 1.1 1.3 1.9 2.6 2.6 3.0 3.2 3.3 3.2 3.0 2.6 2.0
6.9 6.0 5.8 6.9 7.5 7.2 6.2 4.4 3.2 4.0 4.5 5.9 6.3 6.5 6.2 6.5 6.5 6.6 6.6 6.5 4.2 3.3 2.8 3.8 6.5 6.5 6.5 6.5 6.5 6.5 6.5 6.5 6.5 6.5 6.8 6.4 5.6 5.1 3.4 2.4 0.7 0.4 1.1 0.6 1.2 2.1 2.0 2.1 2.5 2.7 2.5 2.4 2.2 2.2
6.0 4.5 6.0 6.7 6.8 6.6 5.9 4.3 4.3 5.1 5.6 6.2 6.3 4.9 5.2 5.8 6.4 5.9 5.1 4.5 3.0 3.9 6.5 6.5 6.5 6.5 6.5 6.5 6.5 6.5 6.5 6.5 6.7 6.6 6.1 5.9 5.7 5.0 2.7 0.3 -0.4 0.3 1.0 1.4 1.4 1.9 1.7 2.1 2.3 2.6 2.4 2.4 2.5 2.5
4.6 3.7 5.6 6.3 5.4 4.6 4.0 3.8 4.3 5.8 6.6 5.6 6.3 5.6 4.9 5.7 5.5 4.5 3.6 2.5 3.2 4.5 5.5 6.5 6.2 6.5 6.5 6.5 6.5 6.5 6.5 6.1 5.4 5.2 4.7 4.8 4.6 4.2 3.6 2.1 1.1 2.9 2.7 1.7 2.0 1.8 2.0 2.3 3.3 3.6 2.9 2.5 2.4 2.3
5.1 4.7 5.6 5.4 4.3 3.2 4.4 4.6 4.7 6.4 6.2 5.1 5.3 4.7 4.6 5.1 4.9 4.1 3.0 2.4 2.8 3.7 4.5 6.2 6.5 6.5 6.5 6.6 6.5 5.9 5.5 5.8 6.0 5.2 4.4 3.8 3.6 3.5 3.8 3.7 3.6 3.6 3.2 2.9 3.2 3.5 3.4 3.5 3.5 2.8 2.7 2.8 3.1 3.2
6.1 5.7 4.9 4.7 3.7 3.8 5.6 5.2 5.0 5.6 6.3 5.1 4.1 5.2 5.0 4.9 4.3 3.5 3.2 3.4 4.1 5.3 6.5 6.5 6.5 6.7 6.4 5.9 5.5 5.2 5.2 5.0 5.2 5.6 5.0 4.0 3.3 3.0 2.9 3.1 3.4 3.6 3.6 3.2 3.2 3.1 3.4 3.2 3.1 2.9 2.9 3.0 2.9 2.9
4.7 4.3 3.8 2.9 2.6 3.5 4.4 5.2 5.6 5.4 5.1 4.9 4.0 4.5 4.5 4.4 4.6 4.0 4.4 4.1 5.3 6.8 6.5 6.5 6.1 5.3 4.8 5.0 5.6 5.4 5.6 6.3 6.4 6.0 5.4 4.7 3.8 4.0 2.9 3.3 3.4 3.4 3.5 3.4 3.4 3.2 3.4 3.7 3.0 3.0 3.0 3.2 3.3 3.1
3.6 4.3 2.7 2.7 3.7 5.0 4.8 4.1 5.2 4.6 4.9 5.5 5.1 5.4 5.2 5.6 5.7 5.2 4.7 5.7 6.8 6.7 6.9 6.0 5.9 6.1 6.3 6.7 6.5 7.0 6.7 6.6 5.6 4.6 4.0 4.4 4.3 4.4 4.1 3.8 3.8 3.3 3.6 3.7 4.1 3.7 3.7 3.5 3.3 3.2 3.2 3.1 3.4 3.6
3.7 3.6 2.9 3.8 3.6 3.2 5.5 4.2 5.3 5.7 6.5 6.3 5.4 6.4 6.3 5.6 4.6 5.0 5.5 6.3 6.2 5.5 5.5 5.6 5.6 5.5 5.8 5.7 5.7 6.0 6.4 6.6 5.8 5.2 4.2 4.0 3.9 3.4 4.3 4.2 4.0 3.5 3.5 3.4 4.0 4.0 3.8 3.4 3.1 2.9 2.9 3.4 3.5 3.3
2.9 2.8 1.7 2.0 3.5 5.4 3.1 3.5 5.8 6.2 5.5 6.4 6.5 6.5 6.5 5.2 5.0 5.7 6.5 6.2 5.0 4.2 5.1 5.0 5.5 5.6 5.7 5.7 5.5 5.1 4.8 5.2 4.7 4.3 4.9 4.5 4.4 4.1 4.3 4.4 4.0 4.2 4.5 4.0 3.9 3.8 3.6 3.3 2.6 3.2 3.5 3.6 3.6 3.7
2.7 3.2 2.0 5.9 2.8 5.6 6.5 6.5 6.5 6.5 6.5 6.5 6.5 6.5 6.5 5.3 6.5 6.5 6.5 6.5 5.8 5.3 5.1 5.4 5.7 5.9 6.1 5.6 5.1 5.1 4.3 5.4 5.4 5.5 4.6 4.9 4.2 3.9 4.1 4.4 4.5 4.4 3.9 3.4 3.3 3.6 3.6 3.6 3.4 3.6 3.7 3.9 3.9 4.1
6.5 2.1 5.1 5.8 5.2 6.5 6.5 6.5 6.5 6.5 6.5 6.5 6.5 6.4 5.7 6.5 6.5 6.5 6.5 5.2 5.6 5.8 5.8 6.2 6.0 6.0 5.9 5.6 5.7 5.4 5.1 5.2 5.4 5.6 5.3 5.1 5.0 4.9 4.8 4.0 4.1 3.8 3.4 4.2 3.4 3.4 3.4 3.7 3.7 3.9 4.3 4.3 4.2 4.2
6.5 6.5 4.6 5.0 5.2 5.6 5.7 4.2 6.0 6.4 6.5 6.5 6.5 6.5 6.5 6.5 6.5 6.5 5.6 4.9 4.9 4.6 4.7 5.4 6.1 6.2 6.1 5.2 3.9 3.2 3.0 3.5 4.1 4.3 2.7 3.7 4.4 4.9 5.3 4.6 4.2 4.9 2.9 3.0 3.3 3.7 3.4 3.5 4.0 4.4 4.5 4.6 4.2 3.9
3.2 3.1 6.5 2.5 2.6 3.3 6.5 6.5 6.5 6.5 6.5 6.1 6.0 6.5 6.5 6.5 6.5 5.9 5.1 4.4 4.9 5.2 5.0 4.4 4.5 4.9 5.0 4.0 2.7 2.3 2.5 2.5 2.1 2.0 2.7 3.0 1.9 2.2 2.5 2.8 2.5 1.4 3.0 3.1 3.5 3.6 4.1 4.1 4.2 4.0 3.9 3.8 3.2 3.1
2.5 1.3 2.7 6.2 2.0 3.1 6.3 6.5 6.6 6.8 6.4 5.3 6.5 6.5 6.4 5.4 4.7 4.7 4.2 5.0 5.1 5.9 5.5 4.9 4.3 3.7 3.5 3.1 3.1 3.3 3.7 4.4 5.2 4.5 4.6 4.7 4.3 4.6 1.5 1.7 1.9 2.2 3.0 3.3 3.5 4.0 4.1 4.2 4.1 3.8 3.5 3.2 2.6 2.2
2.7 1.0 2.2 3.9 6.5 6.5 4.6 5.1 5.6 4.9 5.1 5.6 5.3 5.3 5.1 4.7 3.9 3.2 4.0 4.8 5.5 6.0 6.2 5.9 5.1 5.2 5.1 5.5 5.3 5.5 5.6 5.4 5.5 5.0 4.5 4.1 4.0 2.0 3.0 3.9 3.7 3.4 3.5 4.2 4.2 4.3 4.3 3.8 2.9 2.2 1.6 1.1 0.9 0.4
2.6 0.4 1.8 3.0 4.7 0.5 3.1 4.4 5.2 5.4 5.4 5.7 5.2 5.8 6.0 4.6 3.6 2.8 3.7 4.4 5.2 5.7 5.9 5.8 5.8 5.8 5.8 5.9 6.0 6.4 6.0 5.3 4.6 4.4 2.8 1.5 0.2 2.5 4.2 4.7 4.7 4.5 4.1 4.0 3.8 3.3 2.6 2.6 2.3 1.8 1.5 1.2 0.7 0.6
-0.2 0.6 2.5 6.5 4.9 2.4 5.6 5.9 6.0 6.1 2.0 3.7 5.8 3.6 4.1 4.7 5.4 4.3 2.5 3.3 4.3 5.5 6.0 6.2 5.9 5.7 5.7 5.8 5.9 5.9 5.5 4.5 2.2 3.0 2.7 1.4 1.2 3.2 3.3 2.7 2.2 2.6 2.6 2.8 2.7 2.6 2.3 1.9 1.5 1.4 1.1 0.9 0.6 0.7
1.9 1.6 0.6 0.8 3.6 6.7 5.6 4.8 3.6 4.6 4.3 3.0 1.3 0.2 4.3 5.8 5.6 1.4 -3.5 -3.8 2.5 5.2 5.5 5.2 4.6 4.5 4.9 5.4 5.6 5.5 4.3 4.3 0.8 1.6 0.3 0.1 -0.9 2.5 2.6 2.1 2.1 1.7 1.6 1.9 2.2 2.0 1.8 1.6 1.4 1.1 0.8 0.5 0.2 -0.1
Wind_Speed
7 4 6 5 4 3 3 4 3 4 6 8 9 14 17 19 24 6 2 4 4 3 3 3 2 3 3 4 5 3 3 2 4 8 7 5 5 6 3 3 6 9 7 4 3 6 10 9 7 8 1 2 7 12
6 6 5 5 6 6 5 7 7 4 7 7 10 13 15 17 21 10 2 3 3 1 1 1 3 3 2 2 5 5 2 4 4 4 4 3 4 4 3 4 4 6 5 6 8 4 1 1 2 2 2 4 7 12
9 8 8 7 8 9 10 9 8 10 15 16 16 16 15 16 20 10 2 4 3 2 3 3 9 9 6 7 3 4 3 4 5 4 2 2 5 4 6 6 4 3 2 3 3 4 3 4 1 3 2 5 9 12
11 11 11 11 11 11 11 12 11 11 13 26 25 22 20 18 17 14 3 3 3 3 2 4 2 4 6 11 11 8 1 1 1 3 2 3 4 4 4 1 4 2 7 5 2 1 0 7 8 8 8 10 12 13
13 13 14 14 14 15 14 13 10 4 10 12 27 27 25 20 19 11 2 3 4 4 2 2 2 4 4 10 13 12 11 7 2 2 3 4 2 3 1 1 3 5 5 5 5 6 3 1 13 13 13 12 14 16
15 17 17 17 17 15 12 13 9 9 7 8 23 27 26 24 20 4 2 3 6 2 2 3 0 4 5 11 13 14 11 6 3 3 2 2 4 2 4 3 0 0 1 1 1 6 4 9 13 9 13 13 13 14
19 19 20 20 19 16 15 14 12 9 6 9 21 25 25 24 9 5 3 1 18 6 1 3 2 2 5 6 3 3 4 2 2 1 3 3 2 2 2 3 2 2 3 8 12 11 8 10 6 11 15 14 15 15
24 26 30 29 29 27 25 22 17 14 12 12 18 22 23 24 10 6 1 2 16 4 2 3 2 1 2 3 3 3 3 3 4 2 1 1 2 1 3 2 4 4 8 7 2 1 6 12 15 14 15 16 16 15
14 21 12 12 23 24 29 25 22 16 13 18 22 23 11 2 2 3 8 16 1 2 3 1 1 1 2 2 3 2 1 2 1 2 1 1 1 3 1 7 8 9 4 7 8 10 14 15 15 16 16 16 16 15
17 18 16 16 20 24 26 24 23 21 23 26 6 2 2 3 20 12 4 4 4 3 2 2 1 2 2 3 3 3 1 2 2 1 1 0 2 1 3 6 8 8 10 12 13 7 10 12 14 15 15 13 14 16
24 26 26 27 29 26 25 26 23 26 18 2 3 2 3 10 2 2 2 2 1 2 2 1 2 2 0 2 2 1 2 0 2 2 2 1 1 1 3 7 8 7 9 3 0 6 11 14 15 14 13 13 14 16
24 25 27 28 27 25 25 25 20 4 3 4 7 5 2 1 1 2 0 0 2 2 1 3 2 1 1 0 2 1 2 0 2 1 1 1 0 3 6 9 5 7 6 3 4 10 12 13 13 13 13 13 12 12
20 22 21 18 17 18 17 15 10 10 11 2 2 4 2 1 4 4 3 1 1 2 2 2 2 1 1 3 3 2 3 1 1 1 1 0 1 4 6 6 6 6 7 7 8 9 12 13 12 12 11 10 12 12
19 19 16 13 11 12 11 7 5 5 2 3 2 3 2 2 2 1 1 1 0 1 3 2 2 2 1 3 1 3 1 0 2 1 1 0 3 6 5 5 7 5 6 8 8 8 10 11 10 10 11 11 12 11
18 18 16 12 15 7 6 9 10 3 3 3 3 4 3 1 1 1 1 1 1 1 1 3 3 2 2 3 2 3 2 1 2 2 1 1 4 5 5 4 6 6 5 6 6 7 8 10 9 9 9 10 11 11
11 10 9 12 9 7 13 9 4 2 3 3 5 2 2 1 2 2 2 2 1 0 1 3 3 3 2 3 2 1 4 3 1 2 1 2 5 5 4 4 4 5 5 6 5 7 8 8 8 9 9 9 10 13
10 3 12 7 3 5 7 3 3 4 3 3 2 1 0 0 1 1 1 1 1 1 2 2 3 1 2 2 2 2 2 1 1 1 1 2 4 6 6 5 5 5 6 6 6 7 6 8 10 10 10 8 10 10
2 4 11 9 2 3 2 3 3 3 4 2 2 2 1 1 1 2 2 2 0 2 1 2 3 3 2 2 2 2 2 2 3 3 3 3 4 6 6 8 6 7 7 6 7 7 7 9 9 6 9 11 10 9
3 5 12 12 4 3 3 4 3 3 2 1 1 2 1 1 0 2 2 2 2 2 3 2 3 2 2 1 1 2 2 2 2 2 2 4 4 5 6 6 6 6 7 7 7 6 6 7 6 7 8 8 8 8
7 13 16 12 6 3 3 3 2 3 2 1 1 2 1 1 2 2 3 3 2 2 4 3 1 1 1 0 0 0 2 4 4 3 2 3 3 5 5 5 5 6 6 7 6 7 6 5 5 7 7 8 8 9
7 6 9 5 3 4 3 2 3 1 1 2 1 1 1 2 2 3 3 3 3 2 2 1 2 1 1 1 2 3 3 3 2 2 3 3 2 4 5 5 6 5 4 5 6 5 5 5 6 6 7 7 7 8
2 8 3 4 3 3 3 2 2 1 2 0 2 2 2 2 2 2 2 3 2 1 2 2 3 2 2 4 3 4 4 6 5 4 5 7 4 4 4 5 5 5 5 5 5 6 5 6 6 7 7 7 8 8
5 4 3 4 4 4 1 1 2 1 2 1 1 2 2 1 2 2 2 1 1 0 0 2 2 3 4 3 4 4 3 5 4 4 3 1 2 2 3 4 4 5 5 4 4 5 5 8 7 7 8 8 8 8
6 4 4 3 3 1 2 3 1 2 2 1 2 1 0 1 1 2 1 0 1 1 1 3 4 4 4 4 2 2 2 3 4 3 3 4 3 2 3 3 3 3 3 5 5 5 6 7 8 8 8 9 9 9
4 5 4 4 3 4 3 3 3 3 1 0 2 1 2 1 1 0 2 2 2 2 3 3 2 1 2 1 2 2 2 3 4 4 4 4 3 3 2 2 3 3 4 6 6 7 7 7 7 9 9 9 11 12
3 4 3 3 2 2 3 1 2 3 2 1 2 0 2 2 1 3 2 3 2 2 3 3 2 2 2 2 2 2 3 2 3 2 3 5 5 5 6 5 4 4 5 5 7 8 9 8 9 11 10 11 12 12
2 2 1 0 0 2 2 1 1 2 2 3 2 2 2 1 3 2 1 0 1 1 1 2 2 2 3 3 2 2 1 2 2 1 0 2 2 2 4 4 5 3 7 8 8 10 11 9 10 10 9 9 10 10
3 2 3 2 2 1 3 1 1 3 2 1 3 2 5 5 2 1 1 0 2 3 3 2 2 2 2 3 4 4 4 3 5 4 4 4 3 1 1 1 1 7 7 7 8 8 9 10 10 10 10 10 9 8
1 1 3 3 2 2 1 1 1 2 1 2 3 2 2 1 1 2 1 2 4 3 3 3 3 4 5 4 3 3 4 3 3 2 2 1 0 1 1 1 2 3 5 7 9 9 11 9 10 10 10 8 8 8
2 0 3 1 3 2 3 1 0 1 1 1 1 1 0 1 1 0 2 3 3 3 2 3 4 3 3 3 3 2 1 1 1 2 3 3 3 1 3 4 5 5 5 7 7 8 11 9 11 7 8 7 7 7
1 2 3 1 2 3 3 1 1 1 1 1 1 2 2 2 1 2 2 2 3 3 4 4 3 3 3 3 3 3 3 3 4 4 2 1 2 4 4 5 5 5 6 7 8 8 9 8 7 9 10 10 11 10
2 2 3 1 2 3 1 1 1 1 0 0 2 1 0 1 2 3 2 3 4 5 6 5 5 5 5 3 3 2 3 2 4 4 6 3 3 4 3 4 4 5 6 7 7 8 9 10 9 9 9 11 11 11
1 1 1 1 2 1 1 2 3 3 1 2 2 2 2 2 5 3 1 0 3 3 4 3 2 2 3 4 5 4 4 2 4 6 5 5 5 5 4 4 5 5 7 7 7 8 10 11 9 10 10 11 11 10
Wind_Direction
281 256 227 227 250 265 266 255 170 140 141 149 161 166 173 170 163 135 141 152 132 158 268 239 228 147 145 156 175 160 120 159 166 196 203 189 222 210 253 256 202 212 180 205 178 209 248 151 123 192 143 51 154 149
256 256 261 262 262 267 265 268 204 246 238 216 191 184 179 176 171 145 121 137 109 169 254 261 258 254 229 184 189 170 254 155 189 190 204 182 194 182 196 237 203 210 198 181 194 209 347 357 37 57 155 152 156 148
257 258 261 262 264 267 264 267 243 262 243 223 216 197 188 182 187 156 117 120 115 201 268 216 228 221 194 202 176 158 202 194 177 218 180 215 240 173 195 216 210 228 196 159 147 182 215 228 155 142 178 139 148 148
260 260 262 263 260 255 255 264 253 279 233 219 213 207 186 182 187 164 146 159 124 146 235 264 110 200 200 184 188 204 172 76 110 150 227 212 230 206 200 180 205 203 157 163 266 244 207 242 210 165 123 128 128 142
261 262 262 261 259 256 247 253 266 166 282 234 201 194 192 186 184 166 127 194 180 167 220 260 307 223 170 178 194 202 216 228 176 182 206 214 220 184 138 90 233 196 173 185 213 191 193 191 166 151 142 141 141 138
268 269 265 259 257 249 243 237 234 182 250 232 184 187 188 186 177 112 185 232 206 106 236 260 176 199 195 213 204 205 209 193 176 195 204 198 253 173 165 199 220 99 149 15 207 117 72 121 132 144 137 140 141 140
275 271 267 263 254 244 235 233 234 198 227 241 183 186 183 181 162 167 190 219 176 132 228 262 233 185 271 172 157 151 148 135 172 165 233 197 173 139 140 214 146 45 95 113 115 106 95 147 153 138 133 134 129 128
284 272 264 256 242 227 220 218 218 201 206 192 166 169 170 170 156 233 252 222 154 131 199 244 263 282 200 150 130 159 133 145 191 232 197 124 125 115 225 143 119 121 126 127 0 342 153 132 131 132 131 134 133 134
288 265 247 216 217 204 194 198 192 187 186 137 140 140 139 124 154 217 151 156 77 189 182 181 281 313 323 45 59 65 124 159 181 166 115 182 148 215 137 169 164 163 165 130 95 110 129 139 141 143 144 147 143 148
47 66 76 106 121 139 155 168 171 174 141 111 81 103 129 173 122 109 98 168 203 199 174 213 141 165 157 186 153 173 179 113 127 49 80 160 201 11 337 165 161 167 137 134 115 129 142 151 156 158 159 157 154 155
53 66 83 95 111 120 128 137 143 125 118 85 142 99 96 86 85 187 141 161 178 217 171 173 193 133 306 106 117 13 128 112 138 158 217 191 210 132 113 128 136 146 153 115 187 179 175 163 160 158 155 154 154 154
67 59 71 80 91 104 115 119 119 99 174 177 107 92 88 94 201 121 158 175 208 183 150 138 146 133 100 105 100 20 105 94 133 351 128 230 140 129 141 144 123 141 149 93 103 134 140 149 153 150 149 147 146 137
77 74 76 73 69 78 85 82 110 131 124 158 107 100 208 309 67 130 172 244 115 172 172 161 83 45 109 43 67 73 76 125 145 58 219 241 128 148 143 133 117 121 117 112 110 118 128 134 139 142 136 131 129 132
64 61 77 97 93 95 105 114 167 188 120 70 71 68 61 16 84 157 69 113 81 281 144 116 77 65 23 59 5 89 47 188 81 204 225 231 159 155 144 135 131 138 126 127 125 124 127 127 123 124 130 135 133 136
56 48 40 53 127 116 50 40 38 51 60 60 47 51 40 332 226 155 105 107 38 131 153 91 70 73 36 87 33 114 84 184 220 219 223 151 153 152 148 139 136 139 138 135 132 130 128 128 129 125 135 139 134 135
26 48 9 10 53 12 11 15 29 59 53 55 41 60 337 330 52 56 51 77 353 111 98 55 96 63 53 113 99 152 140 207 217 214 272 123 147 147 129 125 148 142 139 131 128 137 135 133 138 136 130 137 144 146
52 36 339 330 288 59 49 61 44 48 63 48 38 75 56 28 46 46 342 332 332 69 79 95 69 79 116 85 86 164 161 167 128 115 63 102 143 135 124 128 132 125 128 136 132 132 123 119 126 134 142 148 147 148
28 311 334 358 23 57 41 39 81 71 68 27 65 343 357 26 350 0 344 325 336 92 89 97 116 66 91 122 161 144 113 93 67 74 67 65 98 121 134 129 131 135 134 130 127 127 136 143 152 158 146 148 134 136
353 5 7 16 74 89 53 23 39 84 55 14 3 350 12 342 327 295 305 345 52 83 105 60 82 94 117 51 83 116 141 142 141 101 69 57 90 111 116 122 130 134 141 149 154 159 162 166 158 153 152 153 152 153
3 17 7 20 41 71 68 24 41 81 89 277 37 23 352 24 313 342 6 23 40 47 53 56 101 73 105 117 324 114 123 130 128 123 94 72 96 117 129 141 144 138 135 136 135 141 139 131 143 152 158 158 152 156
21 343 355 21 38 57 80 22 56 62 121 91 298 53 21 359 22 15 6 346 59 53 103 77 105 98 100 114 91 109 125 130 142 148 149 140 143 134 135 133 139 146 149 156 157 156 157 162 155 154 150 150 145 143
326 350 42 20 65 50 73 9 101 121 68 24 41 47 42 30 359 351 314 56 73 93 137 165 137 139 127 99 92 90 99 95 93 93 83 122 146 156 160 161 158 163 164 169 169 167 161 151 148 146 143 137 136 138
357 26 40 27 66 44 298 1 73 54 94 291 48 53 18 356 266 324 64 102 135 228 151 129 121 118 119 93 98 103 126 130 117 120 134 137 145 152 155 168 167 163 166 173 162 157 154 148 142 140 139 140 137 134
24 45 48 50 54 215 351 15 28 90 51 106 110 137 22 263 345 47 135 132 201 205 157 127 123 112 110 115 124 138 127 124 119 124 141 144 148 179 182 176 176 188 177 154 156 151 149 149 141 147 149 147 147 146
65 333 74 349 336 59 48 17 354 50 126 182 90 255 184 77 63 341 214 171 158 138 140 129 126 145 129 122 137 154 189 159 159 163 174 163 136 125 150 171 180 185 158 149 159 155 153 149 152 154 156 154 154 157
81 291 93 191 278 115 183 127 201 196 136 98 211 353 59 88 103 239 214 184 169 143 170 169 163 171 137 125 155 179 181 174 149 162 188 184 179 169 175 176 186 207 197 173 154 159 157 158 156 157 157 158 155 152
91 272 291 218 164 102 43 11 81 108 157 179 199 116 80 157 242 245 154 146 122 104 89 109 146 174 158 148 111 87 86 105 112 129 277 187 172 183 170 182 203 214 164 167 163 163 162 162 162 164 160 161 166 165
178 140 153 258 57 18 136 83 150 200 221 200 110 174 179 198 233 194 126 93 119 88 76 61 53 101 120 126 128 127 102 101 97 96 90 76 59 77 115 160 193 149 155 162 161 160 163 165 165 165 166 167 166 169
42 322 93 23 15 41 108 145 237 225 46 134 166 229 231 212 128 148 182 145 119 129 114 107 81 95 93 94 97 110 130 140 117 132 179 197 287 219 79 132 131 153 149 153 161 161 166 165 167 167 165 163 157 154
303 86 92 67 121 231 218 279 224 246 245 247 259 259 207 204 189 209 149 145 146 163 158 145 148 148 147 143 136 132 131 132 159 162 178 203 218 173 167 155 150 151 148 147 144 140 133 124 121 118 124 132 141 142
130 71 68 91 225 243 231 250 262 227 233 247 229 226 251 178 240 219 204 183 163 150 160 171 182 173 163 166 178 186 212 205 200 191 172 151 155 167 174 160 162 151 146 141 141 144 143 145 148 148 151 155 158 156
12 138 128 306 285 277 178 223 261 262 253 331 249 276 227 163 236 199 194 170 178 190 197 189 191 205 203 191 185 186 155 160 186 190 190 189 178 168 150 138 134 133 135 137 141 146 151 149 154 158 159 160 160 160
11 58 71 47 359 256 220 98 18 314 286 259 262 221 250 216 237 238 310 283 225 213 191 181 163 152 175 187 192 186 171 146 148 169 176 172 162 153 140 138 136 133 132 135 141 147 148 147 147 148 148 149 149 149